Rakoskert, Hungary

3:52 AM CET on February 26, 2017 (GMT +0100)
Ferihegy

Weather History for LHBP - January, 2014

Change the Weather History Date:

Sunday, January 12, 2014

  Actual Average Record
Temperature  
Mean Temperature 36 °F -  
Max Temperature 46 °F 37 °F 51 °F (2007)
Min Temperature 26 °F 23 °F 0 °F (2003)
Degree Days  
Heating Degree Days 29    
Moisture  
Dew Point 31 °F    
Average Humidity 74    
Maximum Humidity 100    
Minimum Humidity 49    
Precipitation  
Precipitation 0.00 in - - ()
Sea Level Pressure  
Sea Level Pressure 30.15 in    
Wind  
Wind Speed 12 mph ()    
Max Wind Speed 31 mph    
Max Gust Speed -    
Visibility 5.1 miles    
Events Fog    
Averages and records for this station are not official NWS values.
T = Trace of Precipitation, MM = Missing Value Source: Averaged Metar Reports

Daily Weather History Graph

Daily Weather History Graph

Search for Another Location

Airport or City:

Trip Planner

Search our weather history database for the weather conditions in past years. The results will help you decide how hot, cold, wet, or windy it might be!

Date:

Astronomy

Jan. 12, 2014 Rise Set
Actual Time 7:27 AM CET 4:15 PM CET
Civil Twilight 6:52 AM CET 4:49 PM CET
Nautical Twilight 6:14 AM CET 5:28 PM CET
Astronomical Twilight 5:37 AM CET 6:05 PM CET
Moon 1:31 PM CET (1/12) 4:08 AM CET (1/12)
Length of Visible Light 9h 57m
Length of Day
8h 47m
Waxing Gibbous, 88% of the Moon is Illuminated
Jan 12
Waxing Gibbous
Jan 16
Full
Jan 24
Last Quarter
Jan 30
New
Feb 6
First Quarter

Hourly Weather History & Observations

Time (CET) Temp. Windchill Dew Point Humidity Pressure Visibility Wind Dir Wind Speed Gust Speed Precip Events Conditions
12:00 AM 39.2 °F 37.0 °F 39.2 °F 100% 30.06 in 3.1 mi Variable 3.5 mph - N/A   Mostly Cloudy
12:30 AM 39.2 °F - 39.2 °F 100% 30.06 in 2.5 mi Variable 2.3 mph - N/A   Mostly Cloudy
1:00 AM 39.2 °F 37.0 °F 39.2 °F 100% 30.04 in 2.2 mi Variable 3.5 mph - N/A   Mostly Cloudy
1:30 AM 39.2 °F 33.6 °F 39.2 °F 100% 30.04 in 2.2 mi SW 8.1 mph - N/A   Mostly Cloudy
2:00 AM 39.2 °F 34.2 °F 39.2 °F 100% 30.06 in 1.9 mi SW 6.9 mph - N/A   Scattered Clouds
2:30 AM 39.2 °F - 39.2 °F 100% 30.06 in 1.9 mi Variable 2.3 mph - N/A Fog Patches of Fog
3:00 AM 35.6 °F 32.8 °F 35.6 °F 100% 30.06 in 1.9 mi Variable 3.5 mph - N/A Fog Patches of Fog
3:30 AM 37.4 °F 33.8 °F 37.4 °F 100% 30.06 in 3.1 mi West 4.6 mph - N/A   Mist
4:00 AM 46.4 °F 38.5 °F 46.4 °F 100% 30.06 in - WNW 21.9 mph - N/A   Clear
4:30 AM 46.4 °F 37.9 °F 41.0 °F 81% 30.09 in 6.2 mi WNW 25.3 mph - N/A   Scattered Clouds
5:00 AM 46.4 °F 37.0 °F 39.2 °F 76% 30.09 in 6.2 mi WNW 31.1 mph - N/A   Scattered Clouds
5:30 AM 44.6 °F 35.3 °F 37.4 °F 76% 30.12 in 6.2 mi WNW 26.5 mph - N/A   Scattered Clouds
6:00 AM 44.6 °F 35.9 °F 35.6 °F 71% 30.12 in 6.2 mi WNW 23.0 mph - N/A   Scattered Clouds
6:30 AM 42.8 °F 33.8 °F 35.6 °F 76% 30.12 in 6.2 mi West 21.9 mph - N/A   Scattered Clouds
7:00 AM 41.0 °F 32.2 °F 33.8 °F 76% 30.15 in - West 18.4 mph - N/A   Clear
7:30 AM 41.0 °F 32.8 °F 33.8 °F 76% 30.18 in - WNW 16.1 mph - N/A   Clear
8:00 AM 41.0 °F 31.6 °F 32.0 °F 70% 30.18 in - WNW 20.7 mph - N/A   Clear
8:30 AM 41.0 °F 31.9 °F 32.0 °F 70% 30.21 in - WNW 19.6 mph - N/A   Clear
9:00 AM 42.8 °F 34.5 °F 32.0 °F 66% 30.21 in - WNW 18.4 mph - N/A   Clear
9:30 AM 42.8 °F 33.5 °F 30.2 °F 61% 30.21 in 6.2 mi WNW 23.0 mph - N/A   Partly Cloudy
10:00 AM 44.6 °F 35.3 °F 30.2 °F 57% 30.21 in 6.2 mi WNW 26.5 mph - N/A   Partly Cloudy
10:30 AM 44.6 °F 35.3 °F 30.2 °F 57% 30.21 in 6.2 mi WNW 26.5 mph - N/A   Partly Cloudy
11:00 AM 44.6 °F 35.7 °F 28.4 °F 53% 30.21 in 6.2 mi WNW 24.2 mph - N/A   Scattered Clouds
11:30 AM 44.6 °F 35.1 °F 26.6 °F 49% 30.21 in 6.2 mi WNW 27.6 mph - N/A   Partly Cloudy
12:00 PM 44.6 °F 35.5 °F 28.4 °F 53% 30.18 in 6.2 mi West 25.3 mph - N/A   Partly Cloudy
12:30 PM 44.6 °F 35.7 °F 26.6 °F 49% 30.18 in 6.2 mi West 24.2 mph - N/A   Partly Cloudy
1:00 PM 44.6 °F 35.9 °F 26.6 °F 49% 30.18 in 6.2 mi West 23.0 mph - N/A   Scattered Clouds
1:30 PM 44.6 °F 36.4 °F 28.4 °F 53% 30.18 in 6.2 mi West 20.7 mph - N/A   Scattered Clouds
2:00 PM 44.6 °F 36.6 °F 26.6 °F 49% 30.18 in 6.2 mi WNW 19.6 mph - N/A   Scattered Clouds
2:30 PM 42.8 °F 34.3 °F 26.6 °F 53% 30.18 in 6.2 mi WNW 19.6 mph - N/A   Partly Cloudy
3:00 PM 42.8 °F 35.1 °F 26.6 °F 53% 30.18 in 6.2 mi WNW 16.1 mph - N/A   Scattered Clouds
3:30 PM 41.0 °F 33.5 °F 26.6 °F 57% 30.18 in 6.2 mi WNW 13.8 mph - N/A   Scattered Clouds
4:00 PM 41.0 °F 33.5 °F 26.6 °F 57% 30.18 in 6.2 mi West 13.8 mph - N/A   Scattered Clouds
4:30 PM 39.2 °F 32.0 °F 26.6 °F 61% 30.18 in 6.2 mi West 11.5 mph - N/A   Scattered Clouds
5:00 PM 37.4 °F 30.3 °F 26.6 °F 65% 30.18 in - West 10.4 mph - N/A   Clear
5:30 PM 37.4 °F 32.1 °F 28.4 °F 70% 30.18 in - West 6.9 mph - N/A   Clear
6:00 PM 37.4 °F 31.4 °F 26.6 °F 65% 30.18 in - WSW 8.1 mph - N/A   Clear
6:30 PM 35.6 °F 29.2 °F 26.6 °F 70% 30.18 in - West 8.1 mph - N/A   Clear
7:00 PM 35.6 °F 28.0 °F 26.6 °F 70% 30.21 in - West 10.4 mph - N/A   Clear
7:30 PM 33.8 °F 27.7 °F 28.4 °F 81% 30.18 in - WSW 6.9 mph - N/A   Clear
8:00 PM 30.2 °F 25.4 °F 26.6 °F 86% 30.21 in - SW 4.6 mph - N/A   Clear
8:30 PM 32.0 °F 24.2 °F 28.4 °F 87% 30.18 in - SW 9.2 mph - N/A   Clear
9:00 PM 32.0 °F 24.8 °F 28.4 °F 87% 30.18 in - WSW 8.1 mph - N/A   Clear
9:30 PM 32.0 °F - 28.4 °F 87% 30.18 in - Calm Calm - N/A   Clear
10:00 PM 28.4 °F 24.6 °F 24.8 °F 86% 30.18 in - Variable 3.5 mph - N/A   Clear
10:30 PM 26.6 °F 21.2 °F 24.8 °F 93% 30.18 in - West 4.6 mph - N/A   Clear
11:00 PM 28.4 °F 24.6 °F 24.8 °F 86% 30.18 in - Variable 3.5 mph - N/A   Clear
11:30 PM 26.6 °F 22.6 °F 24.8 °F 93% 30.18 in - Variable 3.5 mph - N/A   Clear